Regional Weather Roundup
Issued by NWS

Home | Current Version | Previous Version | Text Only | Print | Product List | Glossary On
Versions: 1 2 3 4 5 6 7 8 9 10 11 12 13 14 15 16 17 18 19 20 21 22 23 24 25 26 27 28 29 30 31 32 33 34 35 36 37 38 39 40 41 42 43 44 45 46 47 48 49 50
000
ASUS43 KBIS 230020
RWRND

NORTH DAKOTA REGIONAL WEATHER ROUNDUP
NATIONAL WEATHER SERVICE BISMARCK ND
700 PM CDT FRI AUG 22 2014

NOTE: "FAIR" INDICATES FEW OR NO CLOUDS BELOW 12,000 FEET WITH NO
SIGNIFICANT WEATHER AND/OR OBSTRUCTIONS TO VISIBILITY.


NDZ001>003-009>011-017-230100-
NORTHWEST NORTH DAKOTA

CITY           SKY/WX    TMP DP  RH WIND       PRES   REMARKS
WILLISTON      CLOUDY    66  55  67 E12       30.11S
6HR MIN TEMP:  66; 6HR MAX TEMP:  69;

MINOT          CLOUDY    65  60  84 NE8       30.10F
MINOT AFB      CLOUDY    65  60  81 NE8       30.10F
$$

NDZ018>021-031>035-040>046-230100-
SOUTHWEST NORTH DAKOTA

CITY           SKY/WX    TMP DP  RH WIND       PRES   REMARKS
BISMARCK       CLOUDY    68  65  90 E12       30.05F
6HR MIN TEMP:  68; 6HR MAX TEMP:  76; 6HR PCP:  0.01;

DICKINSON      CLOUDY    68  61  78 NE12      30.06S
GARRISON         N/A     65  61  87 NE10G18   30.09S
6HR MIN TEMP:  64; 6HR MAX TEMP:  68; 6HR PCP:  0.01;

HETTINGER ARPT CLOUDY    71  60  68 E10       30.05S
$$

NDZ004>008-012>016-024-026-027-054-230100-
NORTHEAST NORTH DAKOTA

CITY           SKY/WX    TMP DP  RH WIND       PRES   REMARKS
GRAND FORKS    PTSUNNY   72  63  73 N12       30.04R
GRND FRKS AFB  CLOUDY    70  66  86 N8        30.06R
DEVILS LAKE    CLOUDY    66  57  72 N12       30.08S
$$

NDZ022-023-025-028>030-036>039-047>053-230100-
SOUTHEAST NORTH DAKOTA

CITY           SKY/WX    TMP DP  RH WIND       PRES   REMARKS
FARGO          CLOUDY    71  66  84 N13       30.02S
6HR MIN TEMP:  71; 6HR MAX TEMP:  75;

JAMESTOWN      PTSUNNY   71  64  78 NE9       30.05S
$$




USA.gov is the U.S. government's official web portal to all federal, state and local government web resources and services.